Miscellaneous Local Product
Issued by NWS Hastings, NE

Home | Current Version | Previous Version | Text Only | Print | Product List | Glossary Off
Versions: 1 2 3 4 5 6 7 8 9 10 11 12 13 14 15 16 17 18 19 20 21 22 23 24 25 26 27 28 29 30 31 32 33 34 35 36 37 38 39 40 41 42 43 44 45 46 47 48 49 50

000
AXUS43 KGID 310802
MISGRI

GID CWA HOURLY WEATHER ROUNDUP
NATIONAL WEATHER SERVICE HASTINGS NE
300 AM CDT MON AUG 31 2015

NOTE: "FAIR" INDICATES FEW OR NO CLOUDS BELOW 12,000 FEET WITH NO
SIGNIFICANT WEATHER AND/OR OBSTRUCTIONS TO VISIBILITY.

...SOUTH CENTRAL NEBRASKA...

CITY           SKY/WX    TMP DP  RH WIND       PRES   REMARKS
GRAND ISLAND   PTCLDY    66  64  93 S14       29.94F
HASTINGS       PTCLDY    65  63  93 S8        29.95F
KEARNEY        CLEAR     63  61  94 S8        29.94F
ORD            CLEAR     65  62  90 S7        29.92S
YORK           CLOUDY    63  63 100 S5        29.96S FOG
AURORA         PTCLDY    65  65 100 S7        29.96S
LEXINGTON      CLEAR     67  64  89 S10G20    29.95S
HOLDREGE       CLEAR     64  62  93 S7        29.95S
HEBRON         CLEAR     62  60  94 CALM      29.96S FOG

...NEBRASKA PANHANDLE...

CITY           SKY/WX    TMP DP  RH WIND       PRES   REMARKS
CHADRON        LGT RAIN  73  50  44 CALM      29.82R
ALLIANCE       PTCLDY    66  52  60 S10       29.91S
SCOTTSBLUFF    MOCLDY    71  54  54 CALM      29.89F
SIDNEY         CLEAR     67  49  52 S7        29.96F

...WESTERN AND NORTH CENTRAL NEBRASKA...

CITY           SKY/WX    TMP DP  RH WIND       PRES   REMARKS
VALENTINE      CLEAR     71  54  54 SW17G25   29.84S
AINSWORTH      CLEAR     69  59  70 S21       29.87F
ONEILL         CLEAR     66  65  94 S16       29.90F
BROKEN BOW     CLEAR     66  62  87 S9        29.93F
IMPERIAL       CLEAR     69  45  41 S12       29.93S
NORTH PLATTE   CLEAR     65  56  72 SE8       29.93S
MCCOOK         CLEAR     65  54  67 MISG      29.94S

...EASTERN NEBRASKA...

CITY           SKY/WX    TMP DP  RH WIND       PRES   REMARKS
NORFOLK        PTCLDY    67  64  90 S12       29.92F
TEKAMAH        FOG       61  61 100 SW5       29.95S VSB 1/4
COLUMBUS       CLEAR    N/A N/A N/A SE3       29.95S
ALBION         PTCLDY    64  62  92 SE6       29.93F FOG
OMAHA EPPLEY   PTCLDY    66  65  96 CALM      29.95F
OFFUTT AFB     CLEAR     61  61 100 E2        29.94F
MILLARD        FOG       65  64  96 CALM      29.95S VSB 3/4
LINCOLN        CLEAR     66  65  96 CALM      29.96S FOG
NEBRASKA CITY    N/A     65  65  99 S5        29.96S FOG
BEATRICE       CLEAR     66  65  97 SE3       29.96S FOG
FALLS CITY     FOG       65  64  97 SE3       29.95S VSB 1/4

...NORTHERN KANSAS...

CITY           SKY/WX    TMP DP  RH WIND       PRES   REMARKS
GOODLAND       CLEAR     64  50  60 S14       29.97F
HILL CITY      CLEAR     64  61  90 SW3       29.96F
NORTON         SUNNY     63  55  77 SE7       29.94F
PHILLIPSBURG   CLEAR     64  64 100 E5        29.96S
SMITH CENTER   CLEAR     63  63 100 SE7       29.96S FOG
HAYS           CLEAR     63  54  72 S5        29.96F
RUSSELL        CLEAR     66  63  90 S9        29.94F
CONCORDIA      CLEAR     66  64  93 S8        29.96S
SALINA         CLEAR     67  63  87 SE3       29.95F
TOPEKA         MOCLDY    69  67  93 CALM      29.95F



USA.gov is the U.S. government's official web portal to all federal, state and local government web resources and services.